This is the latest recevied weather packets stored in our database for station/object YF9UAG-15. If no packets are shown the sender has not sent any weather packets the latest 10 day(s).
| Time | Temp. | Humidity | Pressure | Rain* | Wind** | Luminosity | Snow |
|---|---|---|---|---|---|---|---|
| 1787423003 | 27.78° C | 50% | 1018.6 hPa | - | - | - | - |
| 1787422403 | 27.78° C | 54% | 1018.5 hPa | - | - | - | - |
| 1787421803 | 27.78° C | 56% | 1018.4 hPa | - | - | - | - |
| 1787421203 | 28.33° C | 56% | 1018.4 hPa | - | - | - | - |
| 1787420602 | 28.33° C | 58% | 1018.3 hPa | - | - | - | - |
| 1787420003 | 28.33° C | 59% | 1018.2 hPa | - | - | - | - |
| 1787419402 | 28.33° C | 58% | 1018.2 hPa | - | - | - | - |
| 1787418802 | 28.33° C | 58% | 1018.3 hPa | - | - | - | - |
| 1787418202 | 27.78° C | 56% | 1018.3 hPa | - | - | - | - |
| 1787417602 | 27.78° C | 56% | 1018.3 hPa | - | - | - | - |
| 1787417002 | 27.78° C | 57% | 1018.2 hPa | - | - | - | - |
| 1787416402 | 28.33° C | 58% | 1018.3 hPa | - | - | - | - |
| 1787415802 | 28.33° C | 59% | 1018.5 hPa | - | - | - | - |
| 1787415202 | 28.33° C | 60% | 1018.6 hPa | - | - | - | - |
| 1787414602 | 28.33° C | 58% | 1018.6 hPa | - | - | - | - |
| 1787414002 | 28.89° C | 58% | 1018.6 hPa | - | - | - | - |
| 1787413402 | 28.89° C | 60% | 1018.6 hPa | - | - | - | - |
| 1787412802 | 28.89° C | 58% | 1018.7 hPa | - | - | - | - |
| 1787412202 | 28.89° C | 60% | 1018.8 hPa | - | - | - | - |
| 1787411603 | 28.89° C | 60% | 1019 hPa | - | - | - | - |
| 1787411002 | 28.89° C | 60% | 1019.1 hPa | - | - | - | - |
| 1787410402 | 28.89° C | 61% | 1019.1 hPa | - | - | - | - |
| 1787409802 | 28.89° C | 60% | 1019.3 hPa | - | - | - | - |
| 1787409202 | 28.89° C | 60% | 1019.4 hPa | - | - | - | - |
| 1787408602 | 29.44° C | 63% | 1019.4 hPa | - | - | - | - |
* Rain since midnight (hover to see other rain measurements)
** Current wind speed in m/s (hover to see current wind gust speed)